Location: Hopville
(44.8032°N, 123.1329°W)
Time: 17:30:04
(UTC+00:00)

Meteor 2-13 Rocket - Pass Details

Date: 24 January 2021
Orbit: 936 x 957 km, 82.5° (Epoch: 28 February)

Event Time Altitude Azimuth Distance (km) Brightness Sun altitude
Rises 13:47:46 0° 347° (NNW) 3,649 7.3 -19.7°
Reaches altitude 10° 13:50:18 10° 344° (NNW) 2,699 6.6 -19.3°
Maximum altitude 13:56:19 57° 267° (W) 1,120 4.5 -18.2°
Drops below altitude 10° 14:02:17 10° 191° (S) 2,673 6.8 -17.2°
Sets 14:04:48 0° 187° (S) 3,611 7.5 -16.8°
